Regional Weather Roundup
Issued by NWS

Home | Current Version | Previous Version | Text Only | Print | Product List | Glossary On
Versions: 1 2 3 4 5 6 7 8 9 10 11 12 13 14 15 16 17 18 19 20 21 22 23 24 25 26 27 28
000
ASUS45 KCYS 261710
RWRWY

WYOMING REGIONAL WEATHER ROUNDUP
NATIONAL WEATHER SERVICE CHEYENNE WY
1100 AM MDT WED JUL 26 2017

NOTE:  "FAIR" INDICATES FEW OR NO CLOUDS BELOW 12,000 FEET
WITH NO SIGNIFICANT WEATHER AND/OR OBSTRUCTIONS TO VISIBILITY.

WYZ001-261800-
YELLOWSTONE NATIONAL PARK

CITY           SKY/WX    TMP DP  RH WIND       PRES   REMARKS
LK YELLOWSTONE   N/A     58  53  84 SE5       30.43F
W YELLOWSTONE  NOT AVBL

$$
WYZ002>013-054>058-071-098>099-261800-
NORTHERN WYOMING

CITY           SKY/WX    TMP DP  RH WIND       PRES   REMARKS
JACKSON        SUNNY     64  54  68 CALM      30.34F
CODY           FAIR      73  50  44 VRB3      30.25F
GREYBULL       FAIR      73  55  53 SE5       30.18F
WORLAND        FAIR      77  56  48 VRB5      30.19F
SHERIDAN       FAIR      80  54  40 VRB6      30.18F
BUFFALO        FAIR      76  55  48 S15       30.26S
GILLETTE       CLOUDY    75  57  53 S9        30.23S
HULETT         FAIR      75  55  50 MISG      30.25S
NEWCASTLE      FAIR      70  54  56 CALM      30.26S

$$
WYZ014>020-022>026-101>103-261800-
CENTRAL WYOMING

CITY           SKY/WX    TMP DP  RH WIND       PRES   REMARKS
BIG PINEY      FAIR      65  52  62 SW8       30.37F
PINEDALE       FAIR      68  48  49 S6        30.38S
DUBOIS         FAIR      70  43  37 CALM      30.36S
LANDER         FAIR      72  53  51 E5        30.29R
RIVERTON       PTSUNNY   73  52  47 VRB6      30.28F
CASPER         CLOUDY    63  58  83 E14       30.29F
DOUGLAS        LGT RAIN  63  57  81 VRB5      30.31S

$$
WYZ021-027>030-104>119-261800-
SOUTHERN WYOMING

CITY           SKY/WX    TMP DP  RH WIND       PRES   REMARKS
EVANSTON       CLOUDY    64  58  80 SW12      30.38R
KEMMERER         N/A     70  50  49 CALM      30.38F
FORT BRIDGER   CLOUDY    69  55  61 W5        30.39F
ROCK SPRINGS   FAIR      70  52  52 SE3       30.35S
RAWLINS        CLOUDY    67  57  70 VRB6      30.35S
SARATOGA       CLOUDY    64  55  72 NW8       30.37S
LARAMIE        PTSUNNY   65  57  75 VRB3      30.37R
CHEYENNE       CLOUDY    63  59  87 N10       30.32S
TORRINGTON     PTSUNNY   73  58  59 N9        30.22S
PINE BLUFFS    CLOUDY    68  59  73 NW14      30.27R

$$




USA.gov is the U.S. government's official web portal to all federal, state and local government web resources and services.